UOSAT 2 (UO-11)

Last updated on Sun Aug 09 2026 00:03:15 GMT+0000 (Coordinated Universal Time)

1 14781U 84021B 26220.50582186 .00000824 00000+0 89227-4 0 9998 2 14781 97.8104 185.5128 0008133 22.7229 337.4348 14.90908836264924
UTC large
Height (km)
Speed (km/s)
/
Latitude / Longitude
Inclination (degrees)
Orbital Period (minutes)
Azimuth
Elevation
Range (km)
Doppler Factor

Next 0 passes for location: London (51.5072 / 0.1276)

No passes found over London.
UOSAT 2 (UO-11)